www.pogodaiklimat.ru

Погода и климат >> Архив погоды >> Австралия >> Западная Австралия >> Маунт Магнет аэропорт


ПОГОДА в Маунт Магнет аэропорту

  • Прогноз погоды в Маунт Магнет аэропорту
  • Монитор погоды в Маунт Магнет аэропорту

АРХИВ ПОГОДЫ в Маунт Магнет аэропорту

Время (UTC), дата Ветер
(напр.,м/с)
 
Видим.   Явления Облачность Т
(С)
Тd
(С)
f
(%)
Тe
(С)
Тes
(С)
Комфортность P
(гПа)
Po
(гПа)
Тmin
(С)
Tmax
(С)
R
(мм)
R24
(мм)
S
(см)
19 9.06 СЗ 5 н/о н/о +10.0 +7.8 86 +7 +7 1013.9 966.2
21 9.06 СЗ 6 н/о н/о +9.3 +7.4 88 +6 +6 1013.6 966.0
22 9.06 СЗ 6 н/о н/о +10.1 +7.9 86 +7 +7 1013.8 966.1
00 10.06 СЗ 7 н/о н/о +11.0 +8.2 83 +8 +8 1013.6 966.0
01 10.06 С 8 н/о н/о +12.7 +8.8 77 +10 +10 1013.5 965.9 +9.4
03 10.06 СЗ 10 н/о н/о +16.9 +8.6 58 +15 +15 1012.2 964.6
04 10.06 СЗ 9 н/о н/о +17.6 +8.5 55 +16 +16 1011.3 963.8
06 10.06 СЗ 11 н/о н/о +18.0 +8.6 54 +17 +17 1009.7 962.2
07 10.06 СЗ 11 н/о н/о +18.0 +9.1 56 +17 +17 1009.1 961.7
09 10.06 СЗ 12 н/о н/о +17.5 +8.9 57 +16 +16 1008.5 961.1
10 10.06 СЗ 8 н/о н/о +16.9 +9.6 62 +16 +16 1008.7 961.3
12 10.06 СЗ 8 н/о н/о +15.2 +11.8 80 +13 +13 1009.3 961.9
13 10.06 СЗ 9 н/о туман местами н/о +14.2 +12.9 92 +12 +12 1009.5 962.0 +18.8
15 10.06 ЮЗ 8 н/о н/о +10.7 +10.1 96 +7 +7 1011.0 963.5
16 10.06 ЮЗ 6 н/о {туман} н/о +10.2 +8.8 91 +7 +7 1011.3 963.8
18 10.06 З 4 н/о н/о +10.4 +8.3 87 +8 +8 1011.1 963.6
19 10.06 СЗ 4 н/о {туман} н/о +10.3 +8.7 90 +8 +8 1011.7 964.1
21 10.06 З 3 н/о н/о +10.1 +8.5 90 +8 +8 1012.1 964.5
22 10.06 СЗ 4 н/о н/о +10.1 +8.5 90 +8 +8 1012.9 965.3
00 11.06 СЗ 4 н/о н/о +10.1 +8.4 89 +7 +7 1014.3 966.6
01 11.06 СЗ 5 н/о н/о +11.3 +8.0 80 +9 +9 1014.6 966.9 +9.9
03 11.06 З 8 н/о н/о +13.4 +7.2 66 +11 +11 1015.5 967.8
04 11.06 З 8 н/о н/о +15.3 +7.1 58 +13 +13 1014.8 967.1
06 11.06 З 7 н/о н/о +15.0 +7.3 60 +13 +13 1014.5 966.8
07 11.06 З 7 н/о н/о +14.6 +8.1 65 +13 +13 1014.8 967.1
09 11.06 З 5 н/о н/о +14.0 +7.5 65 +12 +12 1016.7 968.9
10 11.06 З 5 н/о н/о +13.4 +7.4 67 +12 +12 1017.7 969.9
12 11.06 З 3 н/о н/о +11.3 +8.7 84 +9 +9 1019.6 971.7
13 11.06 З 3 н/о н/о +10.4 +8.3 87 +8 +8 1019.8 971.9 +15.9
15 11.06 СЗ 3 н/о н/о +9.4 +8.3 93 +7 +7 1020.5 972.5
16 11.06 СЗ 3 н/о н/о +8.8 +7.9 94 +6 +6 1020.5 972.5
18 11.06 СЗ 3 н/о н/о +8.8 +7.9 94 +6 +6 1020.5 972.5
19 11.06 З 2 н/о в посл. час дождь {туман} н/о +8.0 +7.2 95 +6 +6 1020.6 972.6
21 11.06 З 3 н/о н/о +7.3 +7.0 98 +4 +4 1021.6 973.6
22 11.06 штиль 0 н/о н/о +6.3 +6.0 98 +5 +5 1021.7 973.7
00 12.06 СЗ 2 н/о н/о +7.9 +7.8 99 +6 +6 1023.5 975.4
01 12.06 З 3 н/о н/о +10.7 +9.0 89 +9 +9 1024.0 975.9 +5.6
03 12.06 ЮЗ 5 н/о н/о +13.7 +7.2 65 +12 +12 1024.1 976.0
04 12.06 З 4 н/о н/о +15.0 +6.8 58 +14 +14 1023.5 975.4
06 12.06 ЮЗ 4 н/о н/о +15.7 +6.7 55 +15 +15 1022.3 974.2
07 12.06 З 4 н/о {туман} н/о +16.5 +6.3 51 +16 +16 1021.8 973.8
09 12.06 ЮЗ 3 н/о н/о +15.6 +7.1 57 +15 +15 1022.3 974.2
10 12.06 Ю 3 н/о н/о +15.1 +7.4 60 +14 +14 1023.2 975.1
12 12.06 Ю 2 н/о н/о +13.9 +8.9 72 +13 +13 1023.7 975.6
13 12.06 штиль 0 н/о н/о +13.7 +9.6 76 +13 +13 1024.0 975.9 +17.0
15 12.06 Ю 1 н/о н/о +13.0 +9.8 81 +14 +14 1023.6 975.5
16 12.06 ЮЗ 2 н/о н/о +12.7 +10.4 86 +12 +12 1023.6 975.5
18 12.06 ЮЗ 2 н/о н/о +12.6 +9.6 82 +12 +12 1023.0 974.9
19 12.06 З 2 н/о н/о +12.2 +10.1 87 +12 +12 1022.6 974.5
21 12.06 штиль 0 н/о н/о +11.7 +10.1 90 +11 +11 1022.7 974.6
22 12.06 ЮЗ 2 н/о н/о +11.6 +10.2 91 +11 +11 1023.5 975.4
00 13.06 штиль 0 н/о н/о +11.7 +10.1 90 +11 +11 1024.6 976.4
01 13.06 Ю 2 н/о н/о +12.5 +9.5 82 +12 +12 1025.3 977.1 +8.0
03 13.06 ЮВ 1 н/о н/о +14.5 +9.1 70 +15 +15 1025.1 976.9
04 13.06 З 2 н/о н/о +14.7 +8.9 68 +14 +14 1024.7 976.5
06 13.06 ЮЗ 3 н/о н/о +15.3 +8.5 64 +15 +15 1023.0 974.9
07 13.06 Ю 4 н/о н/о +15.9 +7.4 57 +15 +15 1022.6 974.5
09 13.06 З 4 н/о н/о +15.8 +4.8 48 +15 +15 1023.1 975.0
10 13.06 ЮЗ 3 н/о н/о +14.4 +6.3 58 +14 +14 1023.5 975.4
12 13.06 штиль 0 н/о н/о +11.3 +7.4 77 +11 +11 1024.1 976.0
13 13.06 штиль 0 н/о н/о +10.2 +7.4 83 +10 +10 1024.5 976.3 +17.0
15 13.06 штиль 0 н/о н/о +8.3 +7.1 92 +7 +7 1024.2 976.1
16 13.06 Ю 2 н/о н/о +7.8 +6.9 94 +6 +6 1023.9 975.8
18 13.06 штиль 0 н/о н/о +7.0 +6.1 94 +6 +6 1023.9 975.8
19 13.06 штиль 0 н/о н/о +6.5 +5.6 94 +5 +5 1023.8 975.7
21 13.06 штиль 0 н/о н/о +5.5 +4.9 96 +4 +4 1023.2 975.1
22 13.06 штиль 0 н/о н/о +5.5 +4.9 96 +4 +4 1023.2 975.1
00 14.06 СВ 2 н/о н/о +8.4 +7.2 92 +6 +6 1024.6 976.4
01 14.06 штиль 0 н/о н/о +12.2 +7.1 71 +12 +12 1025.5 977.3 +5.0
03 14.06 СВ 1 н/о н/о +15.8 +6.3 53 +17 +17 1025.2 977.0
04 14.06 ЮВ 2 н/о н/о +15.8 +4.8 48 +16 +16 1024.1 976.0
06 14.06 В 2 н/о н/о +17.2 +4.5 43 +18 +18 1021.9 973.9
07 14.06 З 3 н/о н/о +17.5 +4.5 42 +18 +18 1022.0 974.0
09 14.06 З 3 н/о н/о +17.2 +3.5 40 +17 +17 1022.5 974.4
10 14.06 ЮЗ 2 н/о н/о +16.0 +5.3 49 +16 +16 1022.7 974.6
12 14.06 З 3 н/о н/о +13.1 +6.5 64 +12 +12 1023.8 975.7
13 14.06 З 3 н/о н/о +12.3 +6.6 68 +11 +11 1023.9 975.8 +18.4
15 14.06 З 3 н/о н/о +11.0 +6.4 73 +9 +9 1023.8 975.7
16 14.06 З 2 н/о н/о +10.1 +6.6 79 +9 +9 1023.8 975.7
18 14.06 штиль 0 н/о н/о +9.3 +6.9 85 +9 +9 1024.0 975.9
19 14.06 штиль 0 н/о н/о +8.6 +6.9 89 +8 +8 1024.0 975.9
21 14.06 З 2 н/о н/о +8.2 +7.3 94 +7 +7 1024.6 976.4
22 14.06 ЮЗ 2 н/о н/о +8.1 +7.7 97 +6 +6 1024.9 976.7
00 15.06 ЮВ 3 н/о н/о +7.4 +7.4 100 +4 +4 1026.4 978.2
01 15.06 ЮВ 2 н/о н/о +7.6 +7.6 100 +5 +5 1027.2 978.9 +7.4
03 15.06 ЮВ 3 н/о н/о +12.4 +9.2 81 +11 +11 1027.2 978.9
04 15.06 ЮВ 3 н/о н/о +14.6 +8.3 66 +14 +14 1026.0 977.8
06 15.06 ЮВ 4 н/о н/о +16.9 +6.1 49 +17 +17 1024.1 976.0
07 15.06 ЮВ 3 н/о н/о +17.7 +5.3 44 +18 +18 1024.1 976.0
09 15.06 Ю 4 н/о н/о +17.3 +4.6 43 +17 +17 1024.5 976.3
10 15.06 Ю 3 н/о н/о +15.6 +6.1 53 +15 +15 1024.8 976.6
12 15.06 Ю 3 н/о н/о +12.0 +6.3 68 +11 +11 1025.4 977.2
13 15.06 Ю 2 н/о н/о +11.0 +6.9 76 +10 +10 1025.5 977.3 +18.4
15 15.06 Ю 3 н/о н/о +9.3 +6.9 85 +7 +7 1025.6 977.4
16 15.06 В 2 н/о н/о +8.3 +6.3 87 +7 +7 1025.5 977.3
18 15.06 Ю 2 н/о н/о +7.5 +6.1 91 +6 +6 1025.4 977.2
19 15.06 Ю 2 н/о н/о +7.5 +6.3 92 +5 +5 1025.5 977.3
21 15.06 штиль 0 н/о н/о +6.1 +5.4 95 +5 +5 1025.7 977.5
22 15.06 штиль 0 н/о н/о +5.5 +4.9 96 +4 +4 1025.8 977.6
00 16.06 СВ 1 н/о н/о +8.2 +7.1 93 +8 +8 1027.4 979.1
01 16.06 СВ 3 н/о н/о +11.5 +7.6 77 +10 +10 1027.7 979.4 +5.4
03 16.06 В 3 н/о н/о +15.7 +7.2 57 +15 +15 1027.1 978.8
04 16.06 СВ 3 н/о н/о +16.8 +6.3 50 +17 +17 1026.1 977.9
06 16.06 ЮЗ 3 н/о н/о +17.3 +4.6 43 +17 +17 1024.6 976.4
07 16.06 ЮВ 2 н/о н/о +17.2 +4.9 44 +18 +18 1024.6 976.4
09 16.06 Ю 5 н/о н/о +16.5 +5.8 49 +16 +16 1024.7 976.5
10 16.06 Ю 4 н/о н/о +15.5 +5.7 52 +15 +15 1025.0 976.8
12 16.06 Ю 4 н/о н/о +13.6 +6.2 61 +12 +12 1026.3 978.1
13 16.06 Ю 3 н/о н/о +12.4 +6.2 66 +11 +11 1026.8 978.5 +18.2
15 16.06 ЮВ 3 н/о н/о +11.6 +5.9 68 +10 +10 1026.2 978.0
16 16.06 ЮВ 1 н/о н/о +9.7 +5.9 77 +10 +10 1026.3 978.1
18 16.06 ЮВ 2 н/о н/о +8.2 +5.8 85 +7 +7 1025.8 977.6

 

Местоположение метеостанции Маунт Магнет аэропорт (Западная Австралия, Австралия): широта -28.11 долгота 117.83 высота над уровнем моря 408 м.

В архиве по умолчанию представлена погода в Маунт Магнет аэропорту за последнюю неделю. Архивные данные за месяц целиком и за предыдущие месяцы, начиная с января 2011 года, Вы можете получить, выбрав интересующий диапазон дат из раскрывающегося списка и нажав кнопку "Ввод!".


*Определитесь, кто Вы:
робот инопланетянин человек

Внимание! Время в таблицах - всемирное. Для получения местного времени необходимо прибавить поправку, которая равна 8 ч.

Смотрите также архив погоды в соседних городах и на ближайших метеорологических станциях:

Погода в Микатарре (Западная Австралия, Австралия) (181 км)
Погода в Мораве (Западная Австралия, Австралия) (214 км)
Погода в Дауоллину (Западная Австралия, Австралия) (266 км)
Погода в Леинстере (Западная Австралия, Австралия) (283 км)
Погода в Джеральдтоне (Западная Австралия, Австралия) (316 км)
Погода в Баджингарре (Западная Австралия, Австралия) (333 км)
Погода в Леонора аэропорту (Западная Австралия, Австралия) (352 км)
Погода в Саутерн Кросс (Западная Австралия, Австралия) (377 км)
Погода в Кандердине (Западная Австралия, Австралия) (395 км)
Погода в Гингине (Западная Австралия, Австралия) (419 км)

Пояснения к столбцам:

Ветер - указаны скорость ветра в м/с - средняя за 10 мин, порывы в срок и между сроками (в фигурных скобках) и направление, откуда дует ветер: С - северный, СВ - северо-восточный, В - восточный, ЮВ - юго-восточный, Ю - южный, ЮЗ - юго-западный, З - западный, СЗ - северо-западный.
Видимость - горизонтальная дальность видимости в метрах или километрах. При видимости от 1 до 10 км при отсутствии осадков обычно наблюдается дымка, при ухудшении видимости до 1 км и менее - туман. В сухую погоду видимость может ухудшаться дымом, пылью или мглою.
Явления - указаны атмосферные явления, наблюдавшиеся в срок или в последний час перед сроком; фигурными скобками обозначены явления, наблюдавшиеся между сроками (за 1-3 часа до срока); квадратными скобками обозначены град или гололедные отложения с указанием их диаметра в мм.
Облачность - указаны через наклонную черту общая и нижняя облачность в баллах и высота нижней границы облаков в метрах; квадратными скобками обозначены формы облаков: Ci - перистые, Cs - перисто-слоистые, Cc - перисто-кучевые, Ac - высококучевые, As - высокослоистые, Sc - слоисто-кучевые, Ns - слоисто-дождевые, Cu - кучевые, Cb - кучево-дождевые. Подробнее классификацию облаков см. в Атласе облаков (PDF).
T - Температура воздуха - температура, измеренная на высоте 2 м над землей.
Td - Температура точки росы - температура, при понижении до которой содержащийся в воздухе водяной пар достигнет насыщения.
f - Относительная влажность воздуха - влажноcть воздуха, измеренная на высоте 2 м над землей.
Te - Эффективная температура - температура, которую ощущает одетый по сезону человек в тени. Характеристика душности погоды. При расчете учитывается влияние влажности воздуха и скорости ветра на теплоощущения человека.
Tes - Эффективная температура на солнце - температура, которую ощущает человек, с поправкой на солнечный нагрев. Характеристика знойности погоды. Зависит от высоты солнца над горизонтом, облачности и скорости ветра. Ночью, в пасмурную погоду, а также при ветре 12 м/с и более поправка равна нулю.
P - Атмосферное давление - приведенное к уровню моря атмосферное давление.
Po - Атмосферное давление - измеренное на уровне метеостанции атмосферное давление.
Tmin - Минимальная температура - минимум температуры воздуха на высоте 2 м над землей.
Tmax - Максимальная температура - максимум температуры воздуха на высоте 2 м над землей.
R - Количество осадков - Количество выпавших осадков за период времени, мм. При наведении курсора мыши на число - период времени, за который выпало указанное количество осадков.
R24 - Количество осадков - Количество выпавших осадков за 24 часа, мм.
S - Снежный покров - Высота снежного покрова, см. При наведении курсора мыши на число - состояние снежного покрова и степень покрытия местности в баллах.